Wetbulb
50.85 51.09 51.17 51.26 51.33 51.55 51.83 51.76 51.77 51.73 52.03 52.27 52.32 52.37 52.62 52.62 52.40 51.55 48.15 53.54 54.35 56.67 54.74 50.94 51.40 50.93 51.54 49.75 49.39 49.67 44.02 43.02 44.70 46.34 48.53 53.48 53.01 56.28 57.29 54.69 54.85 60.35 64.54 66.55 68.46
50.69 50.97 51.22 51.22 51.30 51.44 51.61 51.71 51.97 52.10 52.44 52.60 52.27 52.55 52.62 52.56 49.91 49.06 56.63 57.34 56.47 55.70 49.98 50.81 48.40 49.16 46.64 47.37 47.57 44.89 42.95 42.85 47.81 49.80 49.49 51.76 52.03 54.64 53.84 53.10 53.04 59.74 66.23 66.61 67.23
50.42 50.72 50.78 50.95 51.23 51.50 51.62 51.65 51.88 52.31 52.67 53.04 53.15 52.90 53.03 52.36 48.61 50.13 55.95 56.54 55.01 54.51 53.06 53.54 50.93 48.78 45.50 46.69 46.05 44.40 41.41 45.49 46.78 48.82 50.86 51.17 52.01 54.64 53.87 51.77 54.04 57.29 64.29 64.91 65.05
50.15 50.39 50.68 50.88 51.28 51.58 51.61 51.62 51.81 52.36 52.50 52.65 53.01 53.29 52.98 51.09 40.02 52.71 56.31 55.83 55.74 54.20 51.59 50.92 48.98 45.92 43.91 42.65 46.11 42.57 44.32 44.97 46.38 48.22 49.38 49.74 52.88 52.31 54.07 53.80 57.71 59.97 65.92 64.86 64.30
49.85 50.12 50.59 51.02 51.30 51.63 51.69 51.79 51.96 52.10 52.26 52.40 52.87 52.98 51.29 46.57 47.08 53.50 55.28 54.70 51.57 52.00 49.44 48.08 46.61 46.11 42.95 44.10 44.44 42.66 44.46 45.66 46.09 46.80 47.69 48.47 47.68 51.48 53.50 55.19 59.72 64.49 65.65 64.18 64.01
49.82 50.10 50.31 50.84 51.22 51.56 51.83 51.96 52.12 52.23 52.17 52.40 53.47 52.32 48.07 40.22 51.76 56.29 53.96 50.89 49.19 47.63 46.91 46.20 44.74 46.74 44.61 44.16 43.37 44.65 44.19 44.95 46.33 45.83 46.53 45.56 46.48 49.41 53.88 55.97 59.09 61.35 64.55 63.88 63.96
49.71 49.88 50.06 50.48 50.84 51.24 51.69 51.77 52.08 52.04 51.79 52.40 53.63 52.13 47.00 45.27 52.01 51.86 50.83 48.87 49.53 49.98 47.59 49.00 48.19 44.52 44.57 42.78 45.61 44.54 41.28 43.34 44.78 45.58 44.90 46.55 43.82 46.93 53.14 55.16 56.55 57.99 57.52 58.08 63.76
49.61 49.80 49.86 49.97 50.36 50.85 51.51 51.76 51.76 51.77 51.50 53.22 53.20 51.62 44.28 52.79 53.81 51.96 52.29 51.56 53.11 53.07 51.45 51.60 50.12 46.57 43.68 44.66 43.21 40.99 41.93 37.29 42.43 44.59 45.61 45.07 40.36 48.39 52.53 53.94 53.83 56.19 59.93 61.14 63.30
49.56 49.74 49.82 50.41 50.59 51.27 51.59 51.82 51.32 51.66 52.67 52.37 51.10 49.81 44.70 54.15 49.40 51.65 52.29 50.14 51.24 51.85 52.21 51.63 49.09 44.68 43.81 38.83 36.76 38.87 34.77 37.37 38.86 43.89 44.26 43.47 40.95 47.20 51.35 53.03 53.03 55.10 55.48 62.57 63.20
49.50 49.52 49.72 50.45 50.74 51.13 50.96 50.95 52.60 50.82 51.90 53.12 52.35 44.46 47.93 45.71 49.56 51.39 52.81 51.05 47.83 48.50 47.94 46.86 44.45 40.27 39.67 37.79 31.04 33.79 35.02 37.31 37.80 41.20 42.82 41.76 42.28 45.75 49.64 51.35 52.78 54.42 54.54 60.67 62.70
49.23 49.48 49.55 50.29 50.93 50.97 50.40 52.09 47.23 45.63 49.16 44.52 44.92 45.60 46.47 49.02 50.03 47.45 49.27 47.63 47.34 45.64 40.44 44.19 38.70 34.95 37.86 39.23 39.05 38.58 37.39 36.46 40.08 42.76 41.77 41.75 41.88 44.40 47.50 51.48 51.38 52.78 53.11 57.14 62.13
49.15 49.49 49.90 50.39 50.85 50.80 50.66 45.63 45.05 45.43 38.06 44.77 44.95 45.17 47.40 48.53 42.97 45.42 49.13 43.78 43.42 38.91 42.18 39.80 36.58 40.50 41.62 40.60 38.69 37.67 36.02 36.27 39.81 42.47 41.79 41.65 41.35 43.58 46.44 50.44 51.55 51.99 51.99 52.90 60.88
49.09 49.62 49.47 49.71 50.25 49.37 49.55 47.58 49.84 49.73 38.73 41.96 46.28 45.28 45.95 46.97 43.08 43.50 46.18 44.41 41.57 39.06 39.42 36.90 39.09 42.11 40.49 39.02 37.57 37.27 35.51 36.31 36.53 40.57 42.58 41.36 39.94 41.71 45.54 49.63 52.01 52.98 54.52 53.83 54.50
49.20 49.50 48.63 48.61 46.00 48.66 47.34 47.97 49.93 51.60 34.64 39.50 42.06 43.48 44.34 43.23 39.01 45.15 46.28 43.54 40.30 37.07 39.36 38.92 41.90 39.90 38.88 37.52 38.50 33.97 38.95 38.27 37.72 37.15 34.22 41.35 33.86 40.78 43.12 46.30 48.64 51.81 52.14 53.21 51.36
48.82 49.62 49.07 48.29 47.29 45.71 46.22 48.57 50.51 48.11 25.10 38.73 39.78 46.52 41.88 38.23 38.97 39.31 43.98 41.78 37.50 38.63 38.82 36.38 38.16 38.33 36.87 37.94 40.32 37.18 40.59 38.13 37.95 36.84 37.64 37.93 35.69 39.09 43.05 42.39 45.29 48.96 53.95 55.64 55.20
48.70 49.45 48.54 47.55 49.10 47.42 49.03 49.00 48.99 33.61 25.01 34.50 37.87 34.25 33.78 35.10 35.99 38.57 39.00 42.49 41.87 38.01 37.51 37.39 42.63 41.41 39.68 41.71 41.38 41.94 39.33 37.72 38.10 36.97 30.95 36.86 36.46 36.08 39.98 42.79 45.22 47.67 53.60 55.90 56.97
48.34 48.43 47.34 47.21 42.83 49.88 50.26 45.38 34.40 28.35 36.48 30.52 29.18 32.06 31.66 31.52 32.77 34.56 33.35 32.68 30.57 28.15 29.73 35.23 36.17 40.44 42.74 38.62 41.30 39.88 35.75 28.13 26.52 28.38 28.58 37.83 36.32 37.93 42.99 45.54 47.54 47.36 52.14 54.13 56.46
47.86 47.25 49.44 47.61 50.31 51.64 48.14 37.77 26.78 30.61 28.38 31.61 30.59 30.98 27.86 30.29 30.20 31.13 30.20 28.47 31.97 31.35 29.07 26.71 24.49 36.27 41.11 38.96 36.59 36.51 35.80 29.44 21.49 25.17 29.91 37.59 33.53 38.27 44.65 47.49 48.93 50.25 51.49 53.31 54.99
46.37 49.39 47.36 49.51 51.38 51.95 40.98 28.48 25.86 27.35 30.04 28.28 29.36 25.83 25.54 28.49 28.38 28.69 28.17 28.35 29.57 30.30 23.88 25.06 27.29 37.64 39.37 40.80 40.39 35.98 32.63 38.12 33.02 35.70 31.53 34.93 39.38 43.14 45.65 45.55 47.47 49.21 51.01 51.90 55.51
46.53 44.91 43.62 50.90 51.67 45.32 34.29 26.52 28.18 31.95 32.11 30.61 22.99 26.23 21.00 24.80 24.84 25.88 26.08 29.87 28.42 31.31 32.94 29.13 23.50 34.47 38.14 41.82 41.25 38.12 40.55 30.98 33.66 25.64 25.62 32.73 35.12 37.54 43.05 44.68 47.10 47.83 50.16 53.00 57.17
45.21 40.36 45.39 50.48 51.40 38.30 28.85 28.48 30.16 34.02 33.25 28.95 26.26 24.35 25.23 24.40 25.65 24.18 24.81 28.38 30.83 30.60 33.54 31.37 28.42 28.89 33.65 35.90 33.96 35.74 34.95 35.97 36.36 34.60 29.39 28.25 34.41 45.87 45.10 47.77 46.70 47.68 51.83 57.01 59.26
45.33 34.31 46.44 50.79 35.38 35.29 30.25 32.04 32.17 32.46 34.44 31.74 31.14 28.90 26.15 26.63 24.72 24.37 23.80 27.43 33.09 32.71 27.34 31.37 26.63 24.01 31.04 39.65 41.08 39.59 37.15 37.48 31.09 30.52 36.28 35.98 36.50 48.53 50.72 48.80 50.05 48.91 51.20 55.09 59.94
39.44 38.83 46.83 47.09 31.79 31.63 33.75 32.57 33.79 32.14 31.89 31.06 29.28 30.59 30.92 26.72 22.45 26.49 27.09 33.26 33.72 31.54 27.71 29.09 26.12 23.09 29.19 35.66 38.95 35.13 38.26 39.03 39.16 38.32 33.88 32.71 35.49 47.93 50.29 51.06 53.01 51.71 51.33 56.59 58.95
40.93 33.43 38.67 39.68 38.36 33.22 30.40 30.23 29.89 35.07 33.16 33.13 30.83 31.70 28.82 26.62 29.23 25.43 27.28 31.88 33.79 32.66 33.43 32.11 26.74 23.67 21.50 27.77 33.09 32.73 35.87 38.92 38.97 33.46 34.76 35.98 38.01 43.10 45.83 46.30 48.38 52.04 53.08 56.81 58.81
39.69 35.62 36.68 33.72 32.96 33.69 33.17 31.81 29.27 28.64 33.84 33.83 29.82 29.27 27.55 23.37 25.43 25.27 29.08 30.30 32.73 31.88 32.18 30.25 22.46 27.67 29.17 32.26 34.46 32.54 33.41 35.03 37.15 36.71 34.73 36.41 36.76 39.78 42.25 43.12 45.03 49.00 53.58 56.44 58.53
37.76 36.85 38.77 34.88 35.25 33.19 32.32 30.18 29.68 30.87 31.23 28.94 28.41 29.93 30.08 25.64 26.50 24.31 28.08 27.85 26.75 30.57 29.31 31.24 24.19 27.17 27.57 34.05 31.81 28.41 31.73 31.81 32.25 33.70 34.45 35.28 34.67 42.13 43.76 43.36 43.32 45.11 47.61 48.77 52.88
43.35 43.64 38.63 34.85 33.28 31.01 30.79 31.33 31.36 33.70 34.18 34.47 32.78 30.86 29.30 30.99 33.41 33.36 33.09 32.18 30.70 27.90 27.82 28.36 26.91 25.25 29.33 32.90 32.76 23.76 28.09 30.63 30.14 31.19 33.40 31.15 35.53 41.06 40.60 40.45 41.14 43.14 44.75 45.53 48.71
MSLP
1020.62 1020.31 1020.03 1019.74 1019.45 1019.19 1018.94 1018.68 1018.39 1018.01 1017.66 1017.40 1017.07 1016.79 1016.49 1016.15 1015.58 1014.22 1013.21 1011.93 1011.79 1012.18 1012.19 1011.41 1010.71 1009.85 1009.20 1008.77 1008.11 1007.68 1006.93 1005.22 1004.97 1004.72 1003.55 1002.54 1002.36 1003.47 1003.02 1002.77 1002.46 1002.80 1003.36 1005.72 1007.60
1020.66 1020.34 1020.03 1019.75 1019.45 1019.10 1018.77 1018.52 1018.24 1017.88 1017.50 1017.21 1016.92 1016.60 1016.27 1015.98 1015.15 1012.81 1011.75 1011.73 1011.86 1011.98 1011.76 1010.56 1009.78 1009.16 1008.77 1008.06 1007.83 1007.11 1005.72 1004.59 1004.82 1004.24 1003.57 1003.02 1002.86 1003.72 1003.18 1002.84 1002.72 1003.28 1004.88 1005.92 1007.96
1020.70 1020.38 1020.07 1019.75 1019.41 1019.04 1018.70 1018.41 1018.11 1017.67 1017.26 1017.00 1016.67 1016.36 1016.09 1015.73 1013.51 1011.05 1011.56 1011.52 1011.70 1012.05 1011.57 1010.54 1009.66 1009.02 1008.07 1007.57 1007.08 1006.52 1004.46 1004.84 1004.03 1003.69 1003.42 1003.21 1002.99 1004.01 1003.36 1003.18 1002.85 1003.28 1005.65 1007.18 1008.32
1020.69 1020.34 1019.99 1019.59 1019.21 1018.83 1018.47 1018.16 1017.88 1017.52 1017.15 1016.80 1016.47 1016.17 1015.84 1015.31 1012.29 1010.57 1011.36 1011.35 1011.72 1011.66 1010.92 1009.93 1009.23 1008.73 1007.99 1007.11 1006.42 1005.70 1004.88 1004.86 1004.13 1003.23 1002.92 1002.74 1002.75 1002.67 1003.36 1003.24 1003.01 1003.33 1004.70 1006.65 1008.26
1020.64 1020.27 1019.90 1019.52 1019.09 1018.66 1018.25 1017.90 1017.51 1017.18 1016.86 1016.47 1016.09 1015.85 1015.52 1013.55 1010.77 1011.08 1011.35 1011.41 1011.26 1011.09 1010.16 1009.52 1008.88 1008.35 1007.48 1006.89 1006.44 1004.81 1004.64 1004.22 1003.93 1003.33 1002.74 1002.63 1001.98 1002.08 1002.53 1003.48 1003.47 1004.27 1004.51 1006.11 1007.36
1020.48 1020.09 1019.73 1019.31 1018.83 1018.37 1017.91 1017.53 1017.10 1016.69 1016.40 1016.17 1015.83 1015.76 1014.81 1012.11 1008.97 1009.79 1010.56 1010.34 1010.38 1009.99 1009.71 1009.45 1008.96 1008.59 1007.82 1006.95 1006.06 1005.54 1004.61 1003.73 1003.30 1002.94 1002.78 1002.29 1001.99 1001.73 1001.59 1003.21 1004.26 1005.28 1005.10 1006.38 1007.19
1020.35 1019.93 1019.50 1018.99 1018.50 1018.00 1017.50 1017.03 1016.71 1016.28 1015.92 1015.72 1015.49 1015.25 1013.48 1010.50 1008.75 1008.93 1009.61 1009.82 1009.80 1009.71 1009.40 1009.09 1008.93 1008.80 1007.89 1007.31 1006.61 1005.90 1004.91 1003.67 1002.64 1002.58 1002.25 1002.42 1001.71 1000.71 1001.40 1002.66 1004.06 1005.33 1006.40 1005.36 1007.09
1020.15 1019.67 1019.21 1018.70 1018.18 1017.66 1017.05 1016.52 1016.18 1015.71 1015.46 1015.31 1015.24 1014.45 1011.84 1008.92 1008.97 1009.00 1008.88 1008.96 1009.12 1009.43 1009.40 1009.33 1009.11 1008.68 1008.20 1007.84 1007.13 1006.29 1005.18 1003.68 1002.75 1002.30 1002.12 1002.11 1000.16 1000.71 1001.37 1002.02 1003.02 1004.34 1006.60 1005.29 1005.35
1019.95 1019.43 1018.96 1018.45 1017.94 1017.30 1016.52 1015.77 1015.63 1015.34 1015.10 1015.06 1014.85 1013.74 1010.37 1009.25 1009.03 1008.89 1008.64 1008.29 1008.22 1008.26 1008.80 1009.08 1009.06 1008.71 1008.22 1007.75 1007.11 1006.13 1004.57 1003.17 1002.61 1001.83 1001.77 1001.28 1000.39 1000.61 1001.25 1001.61 1002.55 1003.38 1005.32 1004.86 1006.38
1019.74 1019.25 1018.71 1018.22 1017.68 1017.00 1016.12 1014.79 1014.62 1015.18 1014.90 1014.23 1013.29 1012.73 1009.95 1008.30 1007.77 1007.94 1007.92 1008.16 1008.27 1008.12 1008.06 1008.48 1008.65 1008.15 1007.57 1006.79 1005.29 1004.77 1003.90 1002.99 1001.64 1001.51 1000.94 1000.54 1000.16 1000.59 1000.49 1001.19 1001.94 1003.14 1004.93 1004.99 1006.06
1019.63 1019.14 1018.54 1017.99 1017.42 1016.69 1015.92 1013.39 1014.21 1014.11 1013.26 1011.98 1010.76 1010.01 1009.02 1008.03 1007.85 1007.79 1008.09 1007.79 1007.50 1007.76 1007.38 1007.44 1007.53 1006.19 1005.78 1005.61 1005.36 1004.69 1003.56 1002.40 1001.18 1000.71 1000.00 999.39 999.68 999.65 999.89 1000.38 1001.45 1002.45 1003.83 1005.15 1005.67
1019.38 1018.81 1018.23 1017.80 1017.30 1016.65 1015.89 1014.59 1015.03 1015.39 1012.99 1011.43 1010.24 1009.59 1008.98 1008.47 1007.91 1007.86 1007.59 1007.00 1007.22 1006.71 1006.88 1006.92 1005.10 1005.42 1005.24 1004.72 1004.19 1003.85 1003.30 1002.14 1001.10 999.84 999.16 998.63 998.44 998.97 998.93 999.40 1000.37 1001.70 1003.05 1005.29 1004.70
1019.15 1018.57 1017.98 1017.56 1017.06 1016.50 1015.26 1015.25 1015.00 1015.02 1013.67 1009.92 1008.43 1008.16 1008.05 1008.56 1007.94 1007.44 1007.14 1006.33 1006.41 1006.24 1005.76 1005.19 1004.16 1004.41 1004.14 1003.72 1003.42 1003.04 1002.54 1001.92 1001.16 999.57 998.49 997.96 997.50 997.86 997.77 998.56 999.42 1000.47 1002.50 1005.28 1006.28
1019.04 1018.39 1017.82 1017.15 1017.29 1015.59 1014.96 1015.51 1015.34 1015.31 1013.58 1009.33 1008.24 1008.41 1008.45 1009.06 1007.85 1007.69 1006.61 1006.62 1005.95 1005.33 1005.10 1004.03 1003.45 1003.08 1002.59 1002.42 1002.67 1002.17 1002.23 1001.82 1001.13 999.91 998.18 997.18 996.33 996.71 997.29 997.50 998.54 999.63 1001.22 1002.88 1003.75
1018.89 1018.27 1017.77 1017.37 1016.89 1015.56 1015.94 1015.75 1015.57 1015.50 1013.20 1009.89 1009.10 1009.07 1009.87 1010.14 1009.19 1008.30 1007.48 1006.43 1006.21 1005.41 1005.35 1003.70 1003.78 1002.91 1001.98 1001.35 1001.46 1001.07 1001.71 1001.62 1001.07 999.99 998.68 996.62 996.21 995.62 996.60 996.86 997.84 998.81 999.73 1001.48 1003.73
1018.88 1018.46 1017.83 1016.85 1016.31 1016.34 1016.21 1016.12 1015.84 1015.62 1012.55 1010.78 1010.82 1011.13 1010.90 1010.67 1009.52 1008.27 1007.50 1006.41 1005.73 1006.22 1006.58 1005.01 1004.08 1003.18 1003.59 1001.53 1001.07 1001.27 1001.35 1001.58 1001.05 1000.10 998.30 996.88 995.55 995.65 995.45 995.55 996.84 998.32 998.70 999.75 1000.94
1018.99 1018.63 1018.03 1016.99 1017.05 1016.55 1016.30 1015.90 1015.90 1014.65 1013.01 1012.66 1012.92 1012.59 1011.82 1010.74 1010.42 1010.02 1008.75 1008.53 1008.65 1007.31 1006.22 1004.54 1003.71 1002.94 1002.68 1001.95 1001.35 1001.24 1001.35 1001.20 1000.76 999.28 998.26 997.05 995.47 995.34 995.03 994.97 995.74 997.03 997.85 999.02 1000.12
1019.00 1018.82 1017.65 1017.22 1017.05 1016.33 1016.09 1015.99 1015.39 1015.12 1015.29 1015.34 1014.77 1013.79 1013.04 1012.74 1012.49 1011.30 1010.42 1009.99 1011.20 1009.93 1008.04 1006.58 1006.10 1004.25 1002.58 1001.04 1001.03 1000.57 1000.74 1000.48 1000.27 999.25 998.48 996.84 994.91 994.21 994.57 993.81 994.63 995.65 996.98 998.60 1000.06
1019.17 1017.83 1017.62 1017.15 1016.39 1015.25 1015.52 1016.13 1016.79 1016.95 1016.76 1016.25 1015.54 1014.74 1014.55 1014.07 1013.62 1012.55 1011.76 1012.45 1012.75 1012.32 1011.60 1008.94 1005.55 1004.21 1003.32 1002.31 1000.99 1000.36 1000.19 1000.55 1000.69 999.39 998.19 996.53 995.33 994.47 993.77 993.30 993.90 994.97 996.42 997.70 999.55
1019.00 1017.52 1017.86 1017.58 1016.85 1015.75 1016.03 1017.13 1017.61 1017.65 1017.13 1016.75 1016.25 1016.20 1015.54 1015.06 1014.63 1013.84 1013.17 1014.46 1013.89 1013.23 1012.92 1010.99 1008.60 1005.09 1003.57 1001.99 1001.24 999.85 1000.55 1000.40 1000.03 998.97 997.64 996.46 994.80 993.77 992.93 992.67 993.12 994.36 995.45 996.88 999.03
1018.66 1017.54 1018.44 1017.19 1016.50 1016.57 1017.01 1017.46 1017.92 1017.46 1017.24 1017.05 1016.71 1016.53 1016.20 1015.71 1015.45 1015.08 1014.60 1014.76 1014.56 1013.44 1012.94 1012.09 1009.93 1006.60 1005.15 1001.64 1000.85 1000.44 1000.53 1000.85 1000.28 999.44 997.72 996.98 995.24 994.03 993.24 992.65 992.95 993.97 994.84 996.76 998.96
1018.31 1018.58 1018.60 1017.47 1017.11 1017.08 1017.37 1017.58 1018.00 1017.25 1016.99 1016.97 1016.97 1016.69 1016.51 1016.16 1015.82 1015.08 1014.85 1014.29 1014.15 1013.75 1013.29 1012.96 1011.04 1007.45 1004.39 1001.64 1000.41 1000.59 1000.42 1000.52 1000.51 999.39 998.30 997.37 997.34 996.61 993.96 993.31 993.37 994.07 994.62 995.97 998.68
1018.58 1018.88 1018.41 1017.61 1017.72 1017.93 1017.94 1017.78 1017.49 1017.04 1016.86 1016.75 1016.69 1016.74 1016.91 1016.43 1015.76 1014.65 1014.52 1013.30 1013.45 1013.82 1014.35 1013.99 1011.79 1008.57 1004.68 1002.69 1001.55 1001.08 1001.42 1001.09 1000.90 1000.14 999.23 999.28 999.42 998.39 996.80 995.63 994.94 994.56 994.99 995.89 997.95
1019.12 1020.02 1019.66 1018.40 1018.28 1018.55 1018.34 1017.95 1017.44 1017.10 1016.99 1017.07 1017.08 1016.77 1016.87 1015.93 1015.24 1014.58 1013.72 1012.85 1013.12 1013.79 1014.52 1014.27 1012.92 1011.16 1008.88 1007.30 1005.84 1003.24 1002.57 1002.06 1001.40 1001.22 1001.18 1001.17 1001.48 1000.94 1000.03 999.57 998.91 997.29 995.68 996.66 997.98
1020.07 1020.07 1019.93 1019.28 1019.09 1018.96 1018.80 1018.27 1017.71 1017.36 1017.35 1017.27 1017.16 1016.78 1016.41 1015.74 1014.95 1014.35 1013.63 1013.15 1013.44 1014.14 1014.21 1014.22 1012.92 1011.27 1009.62 1008.35 1007.54 1007.18 1005.83 1004.60 1002.68 1003.98 1003.74 1004.36 1004.00 1004.06 1003.65 1003.34 1002.71 1000.75 998.62 997.54 998.66
1021.07 1020.57 1019.87 1019.68 1019.96 1019.44 1019.27 1018.73 1018.22 1017.66 1017.62 1017.43 1016.88 1016.49 1016.02 1015.45 1015.46 1014.83 1014.44 1014.25 1014.31 1014.32 1014.38 1014.15 1013.05 1011.87 1009.04 1008.66 1008.68 1009.01 1009.16 1008.12 1007.84 1007.75 1007.51 1006.20 1006.24 1006.37 1005.66 1005.77 1004.82 1003.17 1002.30 1002.26 1001.24
1021.31 1021.00 1020.85 1020.67 1020.52 1020.09 1019.77 1019.22 1018.54 1017.75 1017.76 1017.02 1016.58 1016.33 1015.71 1015.50 1015.14 1014.96 1014.98 1014.95 1014.94 1014.98 1014.78 1014.26 1013.44 1012.31 1010.15 1009.91 1009.06 1010.34 1013.39 1012.62 1012.00 1011.28 1010.28 1009.66 1010.00 1007.96 1007.07 1007.32 1007.25 1006.31 1005.49 1005.74 1005.42
Wind_Speed
12 12 12 12 12 13 13 14 14 14 14 14 15 15 16 17 20 18 16 7 4 6 8 13 12 14 13 16 19 19 16 19 24 23 25 20 2 12 18 18 18 12 8 23 22
13 13 13 13 12 12 12 13 13 13 13 13 14 15 15 16 18 18 1 8 7 7 7 10 12 13 13 15 16 19 18 27 23 20 19 25 18 18 17 17 17 10 21 25 18
13 14 14 14 13 13 13 12 12 13 13 14 14 14 14 15 13 4 7 8 5 3 11 12 12 14 19 18 20 22 25 22 24 24 20 21 16 26 22 20 22 15 24 24 19
14 14 14 14 14 13 13 13 13 13 14 14 14 13 11 10 7 5 10 9 4 9 15 12 10 13 17 22 22 27 27 25 27 25 22 25 21 24 17 21 17 12 30 25 23
14 14 15 15 15 14 14 13 13 13 15 16 14 10 9 8 12 13 10 8 8 12 11 12 13 14 19 17 22 30 26 26 25 26 24 23 23 21 22 21 7 20 30 26 21
15 15 16 17 16 16 16 15 14 14 15 14 11 5 6 12 3 16 10 10 10 10 12 12 12 15 20 22 22 23 27 27 23 26 25 25 23 19 21 18 9 11 18 17 19
16 16 17 17 18 17 17 16 16 16 14 12 7 8 11 20 4 4 7 9 9 12 14 13 15 17 13 18 21 24 26 26 23 24 26 22 27 27 18 21 19 19 13 14 16
17 17 17 18 18 19 19 17 14 13 7 8 7 9 9 8 10 18 13 14 13 11 13 12 12 17 20 19 23 24 24 23 24 23 24 24 27 22 24 21 21 20 20 19 20
18 18 19 17 18 19 21 21 15 8 5 5 7 10 10 2 11 13 15 13 13 14 12 10 11 15 16 17 18 20 20 27 27 28 21 27 23 23 25 19 22 18 8 18 18
19 19 19 17 17 19 22 25 4 5 7 8 9 6 10 11 3 12 10 11 15 15 16 15 10 16 16 16 19 22 26 26 26 25 26 27 24 23 23 22 21 17 17 19 18
19 19 18 17 17 19 16 10 2 7 11 13 9 15 21 21 20 19 15 22 19 18 19 20 17 20 22 23 25 24 24 29 24 26 29 26 25 24 23 24 24 19 16 16 23
19 18 17 16 16 18 11 9 9 6 15 19 22 23 21 19 20 17 20 17 17 20 21 20 25 24 23 22 23 25 26 28 27 26 25 26 26 28 25 26 26 27 23 14 16
18 17 17 15 14 9 5 6 8 11 9 13 5 6 4 2 13 15 19 17 21 23 23 25 26 25 27 22 22 22 24 23 26 27 27 24 27 26 23 22 28 28 25 23 32
16 15 15 17 4 9 3 13 10 5 7 6 9 6 7 16 22 18 16 23 28 28 28 26 23 25 25 25 23 22 21 25 25 27 20 26 17 23 26 25 20 19 20 21 18
13 15 13 6 10 7 11 11 9 2 5 8 9 7 24 20 23 24 28 24 20 26 21 24 24 28 25 26 23 21 17 23 26 26 26 25 17 18 22 23 24 24 23 29 37
13 14 19 3 6 13 12 10 4 3 3 6 15 23 24 24 22 25 24 25 21 22 22 34 25 23 23 27 21 20 19 22 23 21 20 23 19 16 19 26 25 25 20 21 21
12 13 12 8 10 12 8 6 4 4 18 15 28 26 24 23 20 26 18 19 12 12 19 24 24 24 26 22 17 21 16 13 16 17 15 21 21 13 25 23 26 29 24 21 18
13 13 9 7 11 9 7 4 4 15 16 23 23 25 19 23 16 20 19 15 11 17 12 16 14 14 24 20 22 21 20 12 18 17 16 24 22 16 23 19 28 28 22 21 22
9 1 9 11 16 8 8 6 8 13 16 18 21 18 19 21 20 20 19 11 10 13 10 11 13 11 15 24 22 20 20 22 17 20 17 15 19 22 22 22 26 25 24 26 22
6 3 10 15 14 10 7 8 10 11 15 18 18 18 18 19 19 19 18 8 11 12 9 8 10 14 15 16 25 16 16 21 15 14 11 17 22 14 19 22 24 25 25 22 23
7 3 10 16 7 8 9 10 8 11 13 12 16 18 16 14 18 19 14 7 9 14 12 10 6 10 14 8 16 12 15 12 14 17 11 13 11 8 14 12 23 24 25 23 25
7 4 8 8 10 9 10 13 2 12 12 10 13 13 15 20 21 18 11 9 7 12 9 9 7 9 14 17 7 16 22 17 8 21 10 11 5 15 14 10 17 19 18 18 25
5 6 5 5 6 9 13 13 12 14 14 14 13 12 16 19 20 18 7 13 8 7 8 11 5 8 6 7 9 6 12 19 18 13 12 2 3 14 19 20 13 8 16 18 23
4 3 4 7 9 13 15 13 15 17 15 14 14 15 15 17 14 10 16 5 7 9 7 7 7 8 9 12 14 2 14 20 19 12 10 6 9 17 22 23 24 23 13 21 19
4 2 2 5 10 13 15 16 19 19 17 17 8 14 16 7 13 10 9 10 15 3 7 9 7 11 16 14 6 17 23 20 19 20 3 6 19 16 17 19 20 20 17 22 21
3 5 8 10 13 14 16 17 20 21 15 14 15 17 14 6 7 10 10 11 6 7 12 8 5 13 14 19 23 25 26 27 21 14 7 20 16 14 15 18 20 23 24 27 16
5 1 5 11 12 14 16 20 20 21 10 19 19 18 11 12 7 7 7 9 10 12 12 5 6 7 7 13 4 17 19 17 13 20 11 16 12 18 17 20 20 20 21 21 17
Wind_Direction
350 348 345 345 341 338 335 332 328 323 321 319 318 319 322 321 311 287 258 254 66 44 326 289 271 265 259 243 242 240 242 239 239 242 258 268 215 295 255 244 248 201 180 141 123
346 343 340 337 333 331 329 327 321 315 312 308 307 308 312 318 302 276 322 95 81 48 272 263 264 252 239 248 235 230 241 236 247 245 246 271 313 249 247 251 248 144 92 123 128
342 338 334 330 327 324 322 320 312 306 303 300 299 303 307 311 295 97 123 101 59 262 257 276 285 271 262 239 237 233 242 246 244 245 258 254 238 252 235 239 247 180 136 141 162
338 333 329 326 322 319 316 312 306 300 300 297 299 298 304 297 304 115 153 121 203 263 262 263 259 255 250 253 242 248 241 248 255 264 241 247 255 245 194 244 251 254 147 152 161
334 331 328 324 320 317 315 312 305 297 291 294 297 293 286 231 254 131 148 178 242 239 246 254 259 262 257 256 255 255 248 250 242 254 260 268 264 245 182 226 265 318 146 155 163
334 332 329 326 323 320 316 310 303 296 287 287 284 260 251 256 219 151 203 232 244 252 252 261 263 268 280 277 263 265 262 255 245 248 243 251 259 250 190 205 150 255 131 148 164
333 331 329 327 323 317 312 308 305 301 283 272 254 228 253 244 219 267 198 250 252 260 269 271 264 256 265 265 256 269 269 269 255 237 248 245 245 236 222 188 172 201 187 155 180
332 331 328 324 320 315 309 302 300 308 265 256 228 234 256 256 269 240 236 232 232 246 257 271 282 271 259 264 274 277 268 252 250 246 240 240 239 217 238 188 212 224 168 172 168
333 331 327 323 319 312 306 299 291 264 234 219 215 222 262 127 223 245 240 249 262 240 221 250 264 257 251 244 251 246 252 250 237 246 222 239 236 231 225 199 209 212 176 168 174
335 330 325 322 317 312 308 292 254 203 227 213 246 261 229 250 288 223 243 253 266 259 249 217 240 238 230 231 230 232 231 241 249 225 243 227 234 230 222 210 212 203 161 209 177
333 328 324 321 316 308 317 296 275 197 245 259 269 237 288 296 302 269 268 257 242 239 243 230 229 232 228 224 246 260 258 248 237 240 228 227 231 220 232 192 212 202 227 245 176
333 328 323 319 312 309 290 16 35 318 293 275 268 267 271 272 274 275 259 239 232 245 234 238 238 235 243 245 244 239 247 258 260 255 238 230 212 233 219 194 206 211 202 237 197
333 330 323 314 307 289 325 34 336 340 274 297 264 240 323 249 270 276 281 268 236 248 243 241 241 236 235 242 244 247 250 244 251 255 242 229 222 209 225 211 196 212 179 188 261
332 324 321 317 294 328 2 356 344 318 278 152 186 71 50 348 276 313 307 261 257 251 245 246 242 242 246 227 229 241 249 250 246 248 254 227 219 205 218 199 213 214 174 174 272
319 311 316 322 308 350 346 336 306 245 278 50 46 9 345 321 315 303 307 298 285 288 271 261 255 266 240 246 236 247 233 254 243 247 253 246 220 202 207 204 198 221 202 183 188
313 312 321 16 301 1 332 320 284 226 284 328 4 342 329 318 307 298 283 288 268 237 253 258 242 262 256 270 241 252 247 246 247 241 247 253 205 217 214 208 193 216 199 203 197
313 308 315 4 337 328 325 277 246 267 7 2 341 338 319 332 352 328 334 315 345 300 254 257 271 255 258 253 239 247 231 225 233 226 242 249 223 191 230 206 193 203 199 201 206
308 309 13 14 333 317 304 292 270 6 352 344 335 317 340 344 341 314 313 308 32 359 317 274 259 248 254 259 229 232 219 223 221 222 223 238 224 211 231 212 191 196 196 203 205
321 296 21 341 332 289 274 42 353 356 345 327 322 341 341 337 336 339 327 17 27 10 360 311 281 329 294 275 244 234 214 221 223 233 225 212 235 218 223 239 192 189 189 206 180
282 89 13 326 319 24 59 20 355 339 329 332 330 332 328 331 344 334 323 31 350 2 331 308 300 277 307 264 263 192 225 217 215 240 203 218 229 201 213 221 187 183 195 203 160
274 108 334 314 269 45 42 22 350 339 340 330 332 322 325 321 338 321 335 341 300 344 331 335 283 306 322 228 208 179 214 248 213 253 203 223 217 234 238 229 169 185 191 158 162
31 66 310 313 30 29 24 12 335 347 347 341 320 312 324 329 322 322 333 257 263 8 348 15 299 286 260 304 219 167 224 225 241 227 224 236 80 349 359 216 166 183 185 169 149
82 45 349 296 29 21 1 7 356 353 345 331 314 338 329 314 308 315 325 304 32 44 21 355 322 303 276 244 244 187 211 228 244 269 268 296 14 14 14 22 10 166 177 161 150
53 43 336 20 21 15 356 1 354 358 341 5 320 315 312 308 308 299 307 317 26 79 56 335 283 289 304 320 312 315 240 228 223 229 245 292 109 30 20 17 358 349 165 154 149
50 55 265 13 16 10 3 1 357 351 344 8 316 328 335 306 306 296 304 332 352 79 342 352 292 304 313 292 42 52 19 355 223 353 243 69 63 24 19 17 8 3 356 151 159
71 19 341 42 14 10 12 5 357 345 2 341 340 332 342 4 326 318 341 349 315 334 327 326 278 325 302 84 86 59 39 37 31 8 42 57 42 19 22 30 19 16 25 12 356
19 336 1 19 21 16 9 0 357 356 351 358 350 352 353 353 312 286 275 283 287 297 311 277 320 322 67 135 103 39 10 42 52 25 5 36 4 354 31 39 36 23 21 8 359